Tracking 31027 objects as of 19-Jul-2025
HD Live streaming from Space Station
objects crossing your sky now

GHGSAT-C7

Track GHGSAT-C7 now!
10-day predictions
GHGSAT-C7 is classified as:


NORAD ID: 56209
Int'l Code: 2023-054AH
Perigee: 442.1 km
Apogee: 455.6 km
Inclination: 97.3 °
Period: 93.4 minutes
Semi major axis: 6819 km
RCS: Unknown
Launch date: April 15, 2023
Source: Canada (CA)
Launch site: AIR FORCE WESTERN TEST RANGE (AFWTR)

Uplink (MHz):
Downlink (MHz): 400.360
Beacon (MHz):
Mode: 9k6 GMSK
Call sign:
Status: Unknown

Your satellite tracking list
ABS 3
Track 1 satellite(s)




NASA's NSSDC Master Catalog

Two Line Element Set (TLE):
1 56209U 23054AH  25199.86109698  .00007190  00000-0  17337-3 0  9990
2 56209  97.3242 100.6409 0009856 156.4352 203.7349 15.41488726126907
Source of the keplerian elements: AFSPC